sat.trackr.live / text

‹ back to catalog

STARLINK-36553

NORAD 67506 · 2026-012P

PAYLOAD ACTIVE UNKNOWN

§ Identity

Operator
Country
US
Launch date
2026-01-18
Launch site
AFETR
Launch vehicle
Mass (kg)
RCS (m²)

Purposes: comms

External: N2YO · Heavens-Above · Gunter

§ Orbital elements

Epoch: 2026-09-19T09:56:29.292288Z

Period
94.27 min
Inclination
43.0056°
Eccentricity
0.0002030
Mean motion
15.27583960 rev/d
Perigee alt
481.6 km
Apogee alt
484.4 km
Semi-major
6,861.2 km
B*
3.7136e-4
RAAN
299.9844°
Arg perigee
285.9764°
Mean anomaly
74.0864°
Rev number
3,739

§ Raw data

STARLINK-365531 67506U 26012P   26262.41422792  .00009972  00000+0  37136-3 0  99932 67506  43.0056 299.9844 0002030 285.9764  74.0864 15.27583960 37392

JSON: /api/v1/satellites/67506 · /tle

For live sub-satellite position, see the globe view (requires WebGL).

§ Visibility from observer

Set your observer location to see the next 7 days of passes ≥ 10°. The values pass through the URL so the page stays shareable.

No JS? Fill the form by hand. The geolocation button needs JavaScript.